TimeEET,TemperatureF,Dew PointF,Humidity,Sea Level PressureIn,VisibilityMPH,Wind Direction,Wind SpeedMPH,Gust SpeedMPH,PrecipitationIn,Events,Conditions,WindDirDegrees,DateUTC
12:00 AM,64.4,33.8,32,29.86,-9999.0,South,17.3,-,N/A,,Clear,170,2013-03-02 22:00:00
1:00 AM,62.6,33.8,34,29.86,-9999.0,South,13.8,-,N/A,,Clear,180,2013-03-02 23:00:00
2:00 AM,67,20,8,29.86,6,South,16.1,,,,,170,2013-03-03 00:00:00
2:00 AM,66.2,19.4,17,29.86,-9999.0,South,16.1,-,N/A,,Clear,170,2013-03-03 00:00:00
3:00 AM,64.4,21.2,19,29.86,-9999.0,South,15.0,-,N/A,,Clear,180,2013-03-03 01:00:00
5:00 AM,64.4,19.4,18,29.86,-9999.0,South,16.1,-,N/A,,Clear,180,2013-03-03 03:00:00
6:00 AM,64.4,19.4,18,29.89,-9999.0,South,15.0,-,N/A,,Clear,180,2013-03-03 04:00:00
7:00 AM,64.4,21.2,19,29.89,-9999.0,South,11.5,-,N/A,,Clear,180,2013-03-03 05:00:00
8:00 AM,66,22,10,29.89,6,SE,6.9,,,,,130,2013-03-03 06:00:00
8:00 AM,66.2,41.0,40,29.89,-9999.0,SE,6.9,-,N/A,,Clear,130,2013-03-03 06:00:00
9:00 AM,73.4,23.0,15,29.92,-9999.0,South,11.5,-,N/A,,Clear,180,2013-03-03 07:00:00
10:00 AM,82.4,-2.2,4,29.89,-9999.0,South,16.1,-,N/A,,Clear,180,2013-03-03 08:00:00
11:00 AM,89.6,12.2,6,29.89,-9999.0,SSW,12.7,-,N/A,,Clear,210,2013-03-03 09:00:00
12:00 PM,91.4,21.2,8,29.86,-9999.0,WSW,11.5,-,N/A,,Clear,250,2013-03-03 10:00:00
1:00 PM,95.0,26.6,9,29.86,-9999.0,WSW,11.5,-,N/A,,Clear,250,2013-03-03 11:00:00
2:00 PM,88,44,13,29.83,6,NNW,13.8,,,,,330,2013-03-03 12:00:00
2:00 PM,87.8,44.6,22,29.83,-9999.0,NNW,13.8,-,N/A,,Clear,330,2013-03-03 12:00:00
3:00 PM,87.8,33.8,15,29.83,-9999.0,NW,12.7,-,N/A,,Clear,320,2013-03-03 13:00:00
4:00 PM,86.0,35.6,17,29.83,-9999.0,NNW,12.7,-,N/A,,Clear,340,2013-03-03 14:00:00
5:00 PM,84.2,37.4,19,29.86,-9999.0,NNW,12.7,-,N/A,,Clear,340,2013-03-03 15:00:00
6:00 PM,80.6,39.2,23,29.86,-9999.0,NNW,8.1,-,N/A,,Clear,340,2013-03-03 16:00:00
7:00 PM,77.0,44.6,32,29.89,-9999.0,NNW,5.8,-,N/A,,Clear,330,2013-03-03 17:00:00
8:00 PM,73,47,28,29.87,6,WNW,6.9,,,,,300,2013-03-03 18:00:00
8:00 PM,73.4,46.4,38,29.89,-9999.0,WNW,6.9,-,N/A,,Clear,300,2013-03-03 18:00:00
9:00 PM,71.6,46.4,41,29.92,-9999.0,NW,11.5,-,N/A,,Clear,310,2013-03-03 19:00:00
10:00 PM,69.8,39.2,33,29.95,-9999.0,NW,12.7,-,N/A,,Clear,310,2013-03-03 20:00:00
11:00 PM,66.2,37.4,35,29.95,-9999.0,NW,11.5,-,N/A,,Clear,310,2013-03-03 21:00:00